• In Belgium
  • List of Countries
  • For 7 days
  • Water Temperature
  • Satellite Maps
  • Weather Map
  • Weather Widgets
  • user-avatar
    Login

    Hourly Weather Bastogne

    Today, 11 December, Monday

    Time Temperature Precipitation Wind Pressure Humidity
    00:00 +3°C° 0 mm 1 mps 736 mmHg 89%
    01:00 +2°C° 0 mm 2 mps 736 mmHg 89%
    02:00 +1°C° 0 mm 3 mps 736 mmHg 89%
    03:00 0°C° 0 mm 4 mps 736 mmHg 89%
    04:00 -1°C° 0.1 mm 6 mps 735 mmHg 86%
    05:00 -1°C° 0.1 mm 7 mps 735 mmHg 84%
    06:00 -2°C° 0 mm 10 mps 734 mmHg 81%
    07:00 -2°C° 1.7 mm 11 mps 734 mmHg 85%
    08:00 -3°C° 1.7 mm 12 mps 734 mmHg 88%
    09:00 -4°C° 1.7 mm 13 mps 734 mmHg 91%
    10:00 -4°C° 1.8 mm 13 mps 733 mmHg 92%
    11:00 -4°C° 1.8 mm 14 mps 732 mmHg 92%
    12:00 -4°C° 1.8 mm 14 mps 732 mmHg 92%
    13:00 -4°C° 2.3 mm 14 mps 732 mmHg 93%
    14:00 -2°C° 2.3 mm 14 mps 732 mmHg 93%
    15:00 -2°C° 2.3 mm 14 mps 731 mmHg 94%
    16:00 -2°C° 1 mm 14 mps 732 mmHg 93%
    17:00 -2°C° 1 mm 14 mps 733 mmHg 92%
    18:00 -2°C° 1 mm 14 mps 734 mmHg 91%
    19:00 -2°C° 0.2 mm 13 mps 736 mmHg 90%
    20:00 -2°C° 0.2 mm 13 mps 737 mmHg 90%
    21:00 -1°C° 0.2 mm 12 mps 739 mmHg 89%
    22:00 -1°C° 0.2 mm 11 mps 740 mmHg 87%
    23:00 0°C° 0.2 mm 10 mps 742 mmHg 86%

    Tomorrow, 12 December, Tuesday

    Time Temperature Precipitation Wind Pressure Humidity
    00:00 0°C° 0.2 mm 10 mps 744 mmHg 84%
    01:00 0°C° 0.3 mm 9 mps 745 mmHg 84%
    02:00 0°C° 0.3 mm 8 mps 747 mmHg 84%
    03:00 0°C° 0.3 mm 7 mps 748 mmHg 84%
    04:00 0°C° 0.4 mm 7 mps 749 mmHg 86%
    05:00 0°C° 0.4 mm 7 mps 750 mmHg 87%
    06:00 0°C° 0.4 mm 7 mps 752 mmHg 89%
    07:00 0°C° 0.3 mm 7 mps 753 mmHg 89%
    08:00 0°C° 0.3 mm 7 mps 754 mmHg 89%
    09:00 +1°C° 0.3 mm 6 mps 755 mmHg 89%
    10:00 +1°C° 0.2 mm 6 mps 755 mmHg 89%
    11:00 +1°C° 0.2 mm 6 mps 756 mmHg 90%
    12:00 +1°C° 0.2 mm 6 mps 757 mmHg 91%
    13:00 +1°C° 0 mm 6 mps 757 mmHg 89%
    14:00 +1°C° 0 mm 6 mps 757 mmHg 87%
    15:00 -1°C° 0 mm 6 mps 758 mmHg 85%
    16:00 -1°C° 0 mm 6 mps 758 mmHg 85%
    17:00 -1°C° 0 mm 6 mps 759 mmHg 85%
    18:00 -2°C° 0 mm 6 mps 759 mmHg 86%
    19:00 -1°C° 0 mm 7 mps 759 mmHg 86%
    20:00 -1°C° 0 mm 8 mps 759 mmHg 87%
    21:00 0°C° 0 mm 8 mps 759 mmHg 88%
    22:00 0°C° 0.1 mm 9 mps 758 mmHg 89%
    23:00 0°C° 0.1 mm 9 mps 758 mmHg 91%

    Day after tomorrow, 13 December, Wednesday

    Time Temperature Precipitation Wind Pressure Humidity
    00:00 0°C° 0.1 mm 10 mps 757 mmHg 92%
    01:00 -1°C° 0.3 mm 11 mps 756 mmHg 91%
    02:00 0°C° 0.3 mm 12 mps 756 mmHg 90%
    03:00 0°C° 0.3 mm 12 mps 755 mmHg 88%
    04:00 0°C° 0.6 mm 12 mps 754 mmHg 89%
    05:00 +2°C° 0.6 mm 12 mps 753 mmHg 89%
    06:00 +2°C° 0.6 mm 12 mps 753 mmHg 90%
    07:00 +2°C° 0.5 mm 11 mps 753 mmHg 90%
    08:00 +3°C° 0.5 mm 10 mps 753 mmHg 91%
    09:00 +5°C° 0.5 mm 8 mps 753 mmHg 91%
    10:00 +5°C° 0.3 mm 8 mps 752 mmHg 89%
    11:00 +5°C° 0.3 mm 8 mps 752 mmHg 87%
    12:00 +5°C° 0.3 mm 8 mps 751 mmHg 85%
    13:00 +5°C° 0.5 mm 8 mps 751 mmHg 87%
    14:00 +5°C° 0.5 mm 8 mps 750 mmHg 89%
    15:00 +6°C° 0.5 mm 8 mps 750 mmHg 91%
    16:00 +6°C° 1 mm 8 mps 749 mmHg 91%
    17:00 +6°C° 1 mm 8 mps 749 mmHg 91%
    18:00 +6°C° 1 mm 8 mps 748 mmHg 91%
    19:00 +6°C° 0.7 mm 8 mps 748 mmHg 90%
    20:00 +6°C° 0.7 mm 8 mps 748 mmHg 89%
    21:00 +5°C° 0.7 mm 7 mps 748 mmHg 88%
    22:00 +5°C° 0 mm 8 mps 747 mmHg 86%
    23:00 +3°C° 0 mm 9 mps 747 mmHg 83%

    14 December, Thursday

    Time Temperature Precipitation Wind Pressure Humidity
    00:00 +3°C° 0 mm 10 mps 747 mmHg 80%
    01:00 +3°C° 0.6 mm 11 mps 746 mmHg 77%
    02:00 +3°C° 0.6 mm 12 mps 746 mmHg 74%
    03:00 +3°C° 0.6 mm 13 mps 746 mmHg 71%
    04:00 +3°C° 0.1 mm 12 mps 746 mmHg 68%
    05:00 +2°C° 0.1 mm 11 mps 746 mmHg 66%
    06:00 +1°C° 0.1 mm 10 mps 746 mmHg 63%
    07:00 +2°C° 0.1 mm 10 mps 746 mmHg 65%
    08:00 +2°C° 0.1 mm 10 mps 746 mmHg 67%
    09:00 +2°C° 0.1 mm 9 mps 745 mmHg 68%
    10:00 +2°C° 0.1 mm 9 mps 745 mmHg 66%
    11:00 +3°C° 0.1 mm 9 mps 745 mmHg 63%
    12:00 +3°C° 0.1 mm 9 mps 744 mmHg 61%
    13:00 +3°C° 0.1 mm 9 mps 744 mmHg 62%
    14:00 +3°C° 0.1 mm 9 mps 744 mmHg 63%
    15:00 +2°C° 0.1 mm 8 mps 744 mmHg 65%
    16:00 +2°C° 0.1 mm 8 mps 744 mmHg 67%
    17:00 +1°C° 0.1 mm 8 mps 744 mmHg 69%
    18:00 +1°C° 0.1 mm 8 mps 745 mmHg 71%
    19:00 +1°C° 0.1 mm 8 mps 745 mmHg 73%
    20:00 +1°C° 0.1 mm 8 mps 745 mmHg 74%
    21:00 0°C° 0.1 mm 7 mps 745 mmHg 76%
    22:00 +1°C° 0.1 mm 8 mps 745 mmHg 77%
    23:00 +1°C° 0.1 mm 8 mps 744 mmHg 78%

    15 December, Friday

    Time Temperature Precipitation Wind Pressure Humidity
    00:00 +1°C° 0.1 mm 9 mps 744 mmHg 79%
    01:00 +1°C° 0.4 mm 9 mps 744 mmHg 79%
    02:00 +2°C° 0.4 mm 9 mps 743 mmHg 78%
    03:00 +2°C° 0.4 mm 9 mps 743 mmHg 77%
    04:00 +2°C° 0.4 mm 9 mps 743 mmHg 79%
    05:00 +2°C° 0.4 mm 8 mps 744 mmHg 80%
    06:00 +2°C° 0.4 mm 8 mps 744 mmHg 82%
    07:00 +2°C° 0.5 mm 9 mps 745 mmHg 81%
    08:00 +3°C° 0.5 mm 9 mps 746 mmHg 79%
    09:00 +3°C° 0.5 mm 10 mps 747 mmHg 78%
    10:00 +3°C° 0.1 mm 10 mps 747 mmHg 74%
    11:00 +3°C° 0.1 mm 10 mps 748 mmHg 71%
    12:00 +3°C° 0.1 mm 9 mps 749 mmHg 67%
    13:00 +3°C° 0.1 mm 9 mps 749 mmHg 70%
    14:00 +2°C° 0.1 mm 9 mps 750 mmHg 73%
    15:00 +2°C° 0.1 mm 9 mps 751 mmHg 76%
    16:00 +2°C° 0.3 mm 9 mps 751 mmHg 75%
    17:00 +2°C° 0.3 mm 9 mps 752 mmHg 75%
    18:00 +2°C° 0.3 mm 10 mps 753 mmHg 75%
    19:00 +2°C° 0.1 mm 9 mps 754 mmHg 75%
    20:00 +2°C° 0.1 mm 9 mps 754 mmHg 75%
    21:00 +1°C° 0.1 mm 8 mps 755 mmHg 76%
    22:00 +1°C° 0 mm 8 mps 755 mmHg 76%
    23:00 +1°C° 0 mm 8 mps 756 mmHg 76%

    16 December, Saturday

    Time Temperature Precipitation Wind Pressure Humidity
    00:00 0°C° 0 mm 8 mps 756 mmHg 77%
    01:00 0°C° 0.1 mm 8 mps 757 mmHg 77%
    02:00 0°C° 0.1 mm 8 mps 757 mmHg 78%
    03:00 0°C° 0.1 mm 7 mps 758 mmHg 78%
    04:00 0°C° 0 mm 7 mps 758 mmHg 78%
    05:00 0°C° 0 mm 7 mps 758 mmHg 78%
    06:00 0°C° 0 mm 7 mps 759 mmHg 78%
    07:00 0°C° 0 mm 7 mps 759 mmHg 77%
    08:00 0°C° 0 mm 7 mps 760 mmHg 75%
    09:00 0°C° 0 mm 7 mps 760 mmHg 74%
    10:00 +2°C° 0 mm 7 mps 760 mmHg 70%
    11:00 +2°C° 0 mm 7 mps 761 mmHg 66%
    12:00 +3°C° 0 mm 7 mps 761 mmHg 62%
    13:00 +3°C° 0 mm 6 mps 761 mmHg 64%
    14:00 +2°C° 0 mm 6 mps 761 mmHg 66%
    15:00 +2°C° 0 mm 5 mps 761 mmHg 69%
    16:00 +1°C° 0 mm 5 mps 761 mmHg 70%
    17:00 +1°C° 0 mm 5 mps 761 mmHg 71%
    18:00 +1°C° 0 mm 5 mps 762 mmHg 73%
    19:00 +1°C° 0 mm 5 mps 761 mmHg 73%
    20:00 0°C° 0 mm 5 mps 761 mmHg 74%
    21:00 0°C° 0 mm 5 mps 761 mmHg 74%
    22:00 +1°C° 0.1 mm 6 mps 761 mmHg 76%
    23:00 0°C° 0.1 mm 7 mps 760 mmHg 77%
    Show more